Flag Weather past 2 weeks in Stralsund, Mecklenburg-Western Pomerania, Germany

Now
42 °F

Overcast.


Feels Like: 42 °F
Forecast: 36 / 42 °F
Wind: 2 mph from Southeast

Location: Greifswald

Current Time: Nov 26, 2014 at 3:14:05 PM

Latest Report: Nov 26, 2014 at 3:00 PM


Visibility: 14 mi

Pressure: 30.26 "Hg

Humidity: 80%

Dew point: 36 °F

Location of StralsundLocation

Historic Weather in Stralsund — Graph

°F

Stralsund temperature yesterday

Maximum temperature yesterday: 47 °F (at 2:00 PM)
Minimum temperature yesterday: 39 °F (at 9:00 AM)
Average temperature yesterday: 43 °F

Past Weeks' High & Low Weather Summary

 TemperatureHumidityPressure
High53 °F (Nov 12, 1:00 PM)100% (Nov 11, 2:00 PM)30.36 "Hg (Nov 11, 2:00 PM)
Low33 °F (Nov 22, 9:00 AM)79% (Nov 22, 3:00 PM)29.68 "Hg (Nov 16, 3:00 PM)
Average44 °F92%30.07 "Hg
* Reported Nov 11 2:00 PM — Nov 26 2:00 PM, Stralsund, Weather by CustomWeather, © 2014

Note: Actual official high and low records may vary slightly from our data, if they occured in-between our weather recording intervals... More about our weather records

Advertising

Stralsund weather history for previous 24 hours

 ConditionsComfort  
Time TempWeatherWind HumidityBarometerVisibility
2:00 PM
Nov 26
42 °FOvercast.2 mph81%30.27 "Hg12 mi
1:00 PM42 °FOvercast.3 mph80%30.29 "Hg11 mi
12:00 PM42 °FOvercast.2 mph80%30.30 "Hg12 mi
11:00 AM41 °FOvercast.2 mph87%30.31 "Hg9 mi
9:00 AM40 °FFog.2 mph97%30.32 "Hg3 mi
8:00 AM39 °FFog.1 mph99%30.31 "Hg3 mi
7:00 AM39 °FFog.1 mph100%30.31 "Hg3 mi
6:00 AM39 °FFog.1 mph100%30.31 "Hg3 mi
5:00 AM39 °FFog.1 mph100%30.31 "Hg0 mi
3:00 AM41 °FFog.2 mph99%30.32 "Hg2 mi
2:00 AM41 °FFog.1 mph100%30.33 "Hg3 mi
1:00 AM40 °FFog.1 mph99%30.34 "Hg2 mi
12:00 AM40 °FFog.1 mph100%30.35 "Hg3 mi
11:00 PM
Nov 25
41 °FFog.2 mph100%30.35 "Hg1 mi
9:00 PM41 °FFog.2 mph100%30.35 "Hg0 mi
8:00 PM41 °FFog.2 mph100%30.35 "Hg1 mi
7:00 PM41 °FFog.2 mph100%30.34 "Hg1 mi
6:00 PM42 °FFog.2 mph100%30.34 "Hg0 mi
5:00 PM42 °FFog.3 mph100%30.34 "Hg0 mi
3:00 PM47 °FScattered clouds.2 mph89%30.32 "Hg16 mi
Weather by CustomWeather, © 2014

See weather overviewHow to use our weather pages